#timestamp,LO_Frequency,Hit,StdDev 
1517173215.7,286047008.9,N
1517173235.5,286047007.3,N
1517173255.4,286047005.3,N
1517173275.2,286047005.6,N
1517173295.0,286047003.6,N
1517173295.9,286047003.6,N
1517173315.8,286047004.3,N
1517173335.6,286047003.6,N
1517173355.5,286047003.9,N
1517173375.3,286046999.7,N
1517173395.1,286047000.0,N
1517173415.9,286046998.1,N
1517173435.8,286047000.1,N
1517173455.7,286046999.7,N
1517173475.5,286047002.8,N
1517173495.3,286047002.7,N
1517173515.2,286046998.2,N
1517173535.0,286047000.6,N
1517173535.9,286047000.6,N
1517173555.8,286047000.1,N
1517173575.6,286047000.0,N
1517173595.4,286047002.8,N
1517173615.3,286047002.7,N
1517173635.1,286046999.8,N
1517173655.8,286047000.9,N
1517173675.7,286047000.3,N
1517173695.5,286047000.8,N
1517173715.4,286047000.7,N
1517173735.2,286047000.7,N
1517173755.0,286046998.5,N
1517173755.9,286046998.5,N
1517173775.8,286046998.9,N
1517173795.6,286046998.4,N
1517173815.5,286047001.2,N
1517173835.3,286046998.8,N
1517173855.1,286046999.0,N
1517173875.9,286046996.5,N
1517173895.7,286046999.3,N
1517173915.5,286047000.7,N
1517173935.4,286047000.9,N
1517173955.2,286047000.0,N
1517173975.1,286047002.0,N
1517173976.0,286047002.0,N
1517173995.8,286047000.1,N
1517174015.6,286047000.0,N
1517174035.5,286047000.2,N
1517174055.3,286047000.5,N
1517174075.1,286047003.9,N
1517174095.9,286047001.8,N
1517174115.7,286047001.5,N
1517174135.6,286047002.0,N
1517174155.4,286047001.4,N
1517174175.2,286047001.9,N
1517174195.1,286047004.2,N
1517174196.0,286047004.2,N
1517174215.8,286047002.2,N
1517174235.7,286047001.3,N
1517174255.5,286046999.9,N
1517174275.3,286046999.7,N
1517174295.2,286047002.3,N
1517174315.9,286047002.6,N
1517174335.7,286046999.7,N
1517174355.6,286046999.9,N
1517174375.4,286047000.6,N
1517174395.3,286047002.7,N
1517174415.1,286047000.2,N
1517174416.0,286047000.2,N
1517174435.8,286047000.1,N
1517174455.7,286047002.6,N
1517174475.5,286047001.6,N
1517174495.3,286047001.6,N
1517174515.2,286047002.2,N
1517174535.0,286047002.5,N
1517174535.9,286047002.5,N
1517174555.8,286047001.4,N
1517174575.6,286047002.0,N
1517174595.4,286047000.1,N
1517174615.3,286047001.6,N
1517174635.1,286047000.1,N
1517174655.8,286047002.3,N
1517174675.7,286047002.2,N
1517174695.5,286047003.9,Y
1517174715.4,286047002.6,P
1517174735.2,286047002.6,P
1517174755.0,286047002.4,P
1517174755.9,286047002.4,Y
1517174775.8,286046999.3,P
1517174795.6,286046998.8,N
1517174815.4,286046998.3,N
1517174835.3,286047000.3,N
1517174855.1,286047001.1,N
1517174875.9,286047000.6,N
1517174895.7,286047000.4,N
1517174915.5,286046998.1,N
1517174935.4,286047000.0,N
1517174955.2,286047001.6,N
1517174975.1,286047000.3,N
1517174976.0,286047000.3,N
1517174995.8,286047000.0,N
1517175015.6,286047002.8,N
1517175035.5,286047000.1,N
1517175055.3,286047000.6,N
1517175075.1,286047000.0,N
1517175095.9,286046998.5,N
1517175115.7,286047001.2,N
1517175135.6,286047000.4,N
1517175155.4,286047000.6,N
1517175175.2,286046998.5,N
1517175195.1,286047000.9,N
1517175196.0,286047000.9,N
1517175215.8,286046998.6,N
1517175235.6,286046998.7,N
1517175255.5,286047001.0,N
1517175275.3,286047000.4,N
1517175295.2,286047001.1,N
1517175315.9,286047000.3,N
1517175335.7,286047001.2,N
1517175355.6,286047000.3,N
1517175375.4,286046998.6,N
1517175395.2,286046999.1,N
1517175415.1,286046998.7,N
1517175416.0,286046998.7,N
1517175435.8,286047001.2,N
1517175455.7,286047000.3,N
1517175475.5,286047001.0,N
1517175495.3,286046998.2,N
1517175515.2,286046998.4,N
1517175535.0,286046996.9,N
1517175535.9,286046996.9,N
1517175555.8,286046996.8,N
1517175575.6,286046996.9,N
1517175595.4,286046997.1,N
1517175615.3,286046997.2,N
1517175635.1,286046999.1,N
1517175655.8,286046997.1,N
1517175675.7,286046999.4,N
1517175695.5,286046996.8,N
1517175715.4,286047001.2,N
1517175735.2,286047000.3,N
1517175755.0,286047000.1,N
1517175755.9,286047000.1,N
1517175775.8,286047001.9,N
1517175795.6,286047004.3,N
1517175815.5,286046999.7,N
1517175835.3,286047000.6,N
1517175855.1,286046998.5,N
1517175875.9,286047000.4,N
1517175895.7,286047000.3,N
1517175915.5,286046999.8,N
1517175935.4,286047000.0,N
1517175955.2,286047000.5,N
1517175975.1,286047001.1,N
1517175976.0,286047001.1,N
1517175995.8,286047000.3,N
1517176015.6,286047001.6,N
1517176035.5,286047002.5,N
1517176055.3,286047002.2,N
1517176075.1,286047001.3,N
1517176095.9,286047001.6,N
1517176115.7,286047003.4,N
1517176135.6,286047005.7,Y
1517176155.4,286047003.6,P
1517176175.2,286047003.8,N
1517176195.1,286047001.4,N
1517176196.0,286047001.4,N
1517176215.8,286047002.4,N
1517176235.7,286047000.4,N
1517176255.5,286047001.5,N
1517176275.3,286047000.2,N
1517176295.2,286047000.6,N
1517176315.0,286047001.2,N
1517176315.9,286047001.2,N
1517176335.7,286046999.8,N
1517176355.6,286046998.5,N
1517176375.4,286047000.9,N
1517176395.3,286047000.8,N
1517176415.1,286046999.6,N
1517176416.0,286046999.6,N
1517176435.8,286046999.4,N
1517176455.7,286046998.5,N
1517176475.5,286047000.3,N
1517176495.3,286046998.1,N
1517176515.2,286046998.9,N
1517176535.0,286047001.2,N
1517176535.9,286047001.2,N
1517176555.8,286047000.3,N
1517176575.6,286047002.7,N
1517176595.4,286046998.1,N
1517176615.3,286046999.8,N
1517176635.1,286047002.7,N
1517176655.8,286047002.5,N
1517176675.7,286047002.0,N
1517176695.5,286047004.4,Y
1517176715.4,286047000.3,P
1517176735.2,286047001.2,P
1517176755.0,286047000.0,N
1517176755.9,286047000.0,N
1517176775.8,286047000.3,N
1517176825.7,286047000.2,E
